• Em Portugal
  • Lista de países
  • Para 7 dias
  • Temperatura da água
  • Mapas de satélite
  • Mapa do tempo
  • Widgets de tempo
  • user-avatar
    Iniciar Sessão

    Previsão horária em Yulara

    Hoje, 22 Outubro, Segunda-feira

    Tempo Temperatura Precipitação Vento Pressão Humidade
    00:00 +27°C° 0 mm 3 m/s 716 mmHg 13%
    01:00 +26°C° 0 mm 3 m/s 716 mmHg 15%
    02:00 +25°C° 0 mm 3 m/s 715 mmHg 16%
    03:00 +25°C° 0 mm 3 m/s 715 mmHg 18%
    04:00 +24°C° 0 mm 2 m/s 715 mmHg 19%
    05:00 +23°C° 0 mm 2 m/s 715 mmHg 21%
    06:00 +23°C° 0 mm 2 m/s 715 mmHg 22%
    07:00 +26°C° 0 mm 2 m/s 716 mmHg 19%
    08:00 +30°C° 0 mm 2 m/s 716 mmHg 15%
    09:00 +34°C° 0 mm 3 m/s 717 mmHg 11%
    10:00 +35°C° 0 mm 3 m/s 716 mmHg 10%
    11:00 +37°C° 0 mm 2 m/s 716 mmHg 8%
    12:00 +38°C° 0 mm 2 m/s 716 mmHg 7%
    13:00 +39°C° 0 mm 2 m/s 715 mmHg 6%
    14:00 +39°C° 0 mm 3 m/s 715 mmHg 6%
    15:00 +40°C° 0 mm 3 m/s 714 mmHg 5%
    16:00 +39°C° 0 mm 2 m/s 714 mmHg 7%
    17:00 +38°C° 0 mm 2 m/s 714 mmHg 8%
    18:00 +36°C° 0 mm 1 m/s 714 mmHg 10%
    19:00 +36°C° 0 mm 2 m/s 714 mmHg 9%
    20:00 +34°C° 0 mm 2 m/s 715 mmHg 9%
    21:00 +33°C° 0 mm 3 m/s 715 mmHg 9%
    22:00 +32°C° 0 mm 5 m/s 715 mmHg 12%
    23:00 +30°C° 0 mm 6 m/s 715 mmHg 15%

    Amanhã, 23 Outubro, Terça-feira

    Tempo Temperatura Precipitação Vento Pressão Humidade
    00:00 +29°C° 0 mm 8 m/s 715 mmHg 18%
    01:00 +28°C° 0 mm 9 m/s 715 mmHg 22%
    02:00 +27°C° 0 mm 9 m/s 715 mmHg 25%
    03:00 +24°C° 0 mm 9 m/s 715 mmHg 29%
    04:00 +23°C° 0 mm 9 m/s 715 mmHg 33%
    05:00 +22°C° 0 mm 9 m/s 716 mmHg 38%
    06:00 +21°C° 0 mm 9 m/s 716 mmHg 42%
    07:00 +23°C° 0 mm 9 m/s 717 mmHg 38%
    08:00 +24°C° 0 mm 10 m/s 717 mmHg 34%
    09:00 +27°C° 0 mm 10 m/s 718 mmHg 30%
    10:00 +29°C° 0 mm 9 m/s 717 mmHg 26%
    11:00 +32°C° 0 mm 9 m/s 717 mmHg 22%
    12:00 +34°C° 0 mm 8 m/s 717 mmHg 17%
    13:00 +35°C° 0 mm 8 m/s 716 mmHg 16%
    14:00 +36°C° 0 mm 7 m/s 716 mmHg 15%
    15:00 +38°C° 0 mm 6 m/s 715 mmHg 14%
    16:00 +36°C° 0 mm 6 m/s 715 mmHg 14%
    17:00 +36°C° 0 mm 7 m/s 715 mmHg 15%
    18:00 +35°C° 0 mm 7 m/s 715 mmHg 16%
    19:00 +34°C° 0 mm 7 m/s 716 mmHg 17%
    20:00 +32°C° 0 mm 8 m/s 716 mmHg 19%
    21:00 +31°C° 0 mm 8 m/s 717 mmHg 20%
    22:00 +29°C° 0 mm 8 m/s 717 mmHg 21%
    23:00 +28°C° 0 mm 8 m/s 717 mmHg 22%

    Depois de amanhã, 24 Outubro, Quarta-feira

    Tempo Temperatura Precipitação Vento Pressão Humidade
    00:00 +27°C° 0 mm 8 m/s 717 mmHg 23%
    01:00 +26°C° 0 mm 8 m/s 717 mmHg 23%
    02:00 +26°C° 0 mm 8 m/s 717 mmHg 24%
    03:00 +24°C° 0 mm 8 m/s 717 mmHg 24%
    04:00 +23°C° 0 mm 8 m/s 717 mmHg 24%
    05:00 +23°C° 0 mm 7 m/s 717 mmHg 25%
    06:00 +23°C° 0 mm 7 m/s 717 mmHg 25%
    07:00 +26°C° 0 mm 8 m/s 718 mmHg 22%
    08:00 +28°C° 0 mm 9 m/s 718 mmHg 19%
    09:00 +32°C° 0 mm 10 m/s 718 mmHg 15%
    10:00 +34°C° 0 mm 9 m/s 718 mmHg 14%
    11:00 +37°C° 0 mm 8 m/s 718 mmHg 12%
    12:00 +39°C° 0 mm 7 m/s 717 mmHg 10%
    13:00 +40°C° 0 mm 5 m/s 716 mmHg 10%
    14:00 +41°C° 0 mm 4 m/s 715 mmHg 9%
    15:00 +41°C° 0 mm 2 m/s 714 mmHg 8%
    16:00 +40°C° 0 mm 2 m/s 714 mmHg 10%
    17:00 +40°C° 0 mm 2 m/s 715 mmHg 11%
    18:00 +39°C° 0 mm 2 m/s 715 mmHg 13%
    19:00 +38°C° 0 mm 4 m/s 715 mmHg 15%
    20:00 +36°C° 0 mm 6 m/s 715 mmHg 17%
    21:00 +35°C° 0 mm 7 m/s 716 mmHg 19%
    22:00 +34°C° 0.1 mm 7 m/s 716 mmHg 21%
    23:00 +34°C° 0.1 mm 7 m/s 715 mmHg 23%

    25 Outubro, Quinta-feira

    Tempo Temperatura Precipitação Vento Pressão Humidade
    00:00 +33°C° 0.1 mm 7 m/s 715 mmHg 25%
    01:00 +32°C° 0.8 mm 6 m/s 715 mmHg 28%
    02:00 +30°C° 0.8 mm 5 m/s 715 mmHg 31%
    03:00 +29°C° 0.8 mm 4 m/s 715 mmHg 34%
    04:00 +29°C° 0.1 mm 5 m/s 715 mmHg 31%
    05:00 +29°C° 0.1 mm 5 m/s 715 mmHg 29%
    06:00 +28°C° 0.1 mm 6 m/s 715 mmHg 26%
    07:00 +29°C° 0 mm 6 m/s 716 mmHg 25%
    08:00 +32°C° 0 mm 6 m/s 716 mmHg 23%
    09:00 +33°C° 0 mm 6 m/s 717 mmHg 22%
    10:00 +34°C° 0 mm 6 m/s 716 mmHg 21%
    11:00 +36°C° 0 mm 6 m/s 716 mmHg 21%
    12:00 +39°C° 0 mm 7 m/s 716 mmHg 21%
    13:00 +38°C° 0 mm 7 m/s 715 mmHg 23%
    14:00 +37°C° 0 mm 8 m/s 714 mmHg 26%
    15:00 +35°C° 0 mm 9 m/s 713 mmHg 29%
    16:00 +37°C° 0.1 mm 8 m/s 713 mmHg 28%
    17:00 +36°C° 0.1 mm 7 m/s 714 mmHg 28%
    18:00 +36°C° 0.1 mm 6 m/s 714 mmHg 28%
    19:00 +35°C° 0 mm 5 m/s 714 mmHg 29%
    20:00 +34°C° 0 mm 5 m/s 715 mmHg 31%
    21:00 +33°C° 0 mm 4 m/s 715 mmHg 32%
    22:00 +32°C° 0.2 mm 4 m/s 715 mmHg 34%
    23:00 +31°C° 0.2 mm 3 m/s 715 mmHg 36%

    26 Outubro, Sexta-feira

    Tempo Temperatura Precipitação Vento Pressão Humidade
    00:00 +30°C° 0.2 mm 3 m/s 715 mmHg 37%
    01:00 +29°C° 1.8 mm 3 m/s 714 mmHg 44%
    02:00 +27°C° 1.8 mm 4 m/s 714 mmHg 51%
    03:00 +26°C° 1.8 mm 4 m/s 714 mmHg 58%
    04:00 +26°C° 0.3 mm 3 m/s 714 mmHg 58%
    05:00 +26°C° 0.3 mm 3 m/s 715 mmHg 59%
    06:00 +26°C° 0.3 mm 2 m/s 715 mmHg 59%
    07:00 +26°C° 0.9 mm 3 m/s 716 mmHg 60%
    08:00 +26°C° 0.9 mm 4 m/s 716 mmHg 61%
    09:00 +26°C° 0.9 mm 5 m/s 717 mmHg 62%
    10:00 +26°C° 0.7 mm 6 m/s 716 mmHg 57%
    11:00 +27°C° 0.7 mm 7 m/s 716 mmHg 53%
    12:00 +27°C° 0.7 mm 8 m/s 716 mmHg 49%
    13:00 +27°C° 0.9 mm 8 m/s 716 mmHg 48%
    14:00 +26°C° 0.9 mm 8 m/s 715 mmHg 47%
    15:00 +26°C° 0.9 mm 8 m/s 715 mmHg 46%
    16:00 +27°C° 0.2 mm 8 m/s 714 mmHg 43%
    17:00 +27°C° 0.2 mm 7 m/s 714 mmHg 40%
    18:00 +28°C° 0.2 mm 7 m/s 714 mmHg 36%
    19:00 +27°C° 0 mm 7 m/s 714 mmHg 40%
    20:00 +26°C° 0 mm 6 m/s 714 mmHg 44%
    21:00 +24°C° 0 mm 6 m/s 714 mmHg 48%
    22:00 +24°C° 0 mm 6 m/s 714 mmHg 47%
    23:00 +25°C° 0 mm 5 m/s 714 mmHg 45%

    27 Outubro, Sábado

    Tempo Temperatura Precipitação Vento Pressão Humidade
    00:00 +25°C° 0 mm 5 m/s 713 mmHg 44%
    01:00 +23°C° 0 mm 5 m/s 713 mmHg 43%
    02:00 +23°C° 0 mm 4 m/s 713 mmHg 42%
    03:00 +22°C° 0 mm 4 m/s 713 mmHg 42%
    04:00 +22°C° 0 mm 4 m/s 713 mmHg 41%
    05:00 +22°C° 0 mm 3 m/s 713 mmHg 40%
    06:00 +22°C° 0 mm 3 m/s 714 mmHg 40%
    07:00 +25°C° 0 mm 4 m/s 714 mmHg 35%
    08:00 +28°C° 0 mm 4 m/s 715 mmHg 31%
    09:00 +30°C° 0 mm 5 m/s 715 mmHg 26%
    10:00 +33°C° 0 mm 5 m/s 715 mmHg 24%
    11:00 +34°C° 0 mm 6 m/s 715 mmHg 22%
    12:00 +35°C° 0 mm 7 m/s 715 mmHg 20%
    13:00 +35°C° 0 mm 7 m/s 714 mmHg 21%
    14:00 +35°C° 0 mm 7 m/s 714 mmHg 21%
    15:00 +36°C° 0 mm 7 m/s 713 mmHg 21%
    16:00 +34°C° 0 mm 8 m/s 714 mmHg 25%
    17:00 +33°C° 0 mm 9 m/s 714 mmHg 29%
    18:00 +31°C° 0 mm 9 m/s 714 mmHg 32%
    19:00 +29°C° 0 mm 9 m/s 715 mmHg 35%
    20:00 +27°C° 0 mm 9 m/s 715 mmHg 37%
    21:00 +26°C° 0 mm 10 m/s 716 mmHg 39%
    22:00 +24°C° 0 mm 9 m/s 716 mmHg 40%
    23:00 +23°C° 0 mm 9 m/s 716 mmHg 41%
    Mostrar mais